Showing default

NINGXIA-1 2, 44780

Orbit data source: Space-Track

NINGXIA-1 2, 44780 is a Chinese payload satellite in LEO that was launched on Wed, 13 Nov 2019 UTC via a CHANG ZHENG 6 launch vehicle from the Taiyaun Space Center, China (TSC). Payload-class satellites include a variety of spacecraft equipped with specific instruments for various scientific and technological missions. These include communications satellites like Starlink; space stations such as the ISS; scientific satellites like the Hubble; Earth observation satellites from companies like Planet Labs, Umbra, and HawkEye 360; GPS; miniature CubeSats for education and research; and military/defense satellites.

Loading next visibility...
Identifier
44780, 2019-076B
Orbit
LEO
Last TLE update
3 hours ago
Origin
Manufacturer
DFH
Mission
Operational Commercial Sigint
Bus & Motor
NX-1, Unknown motor
Mass
~100 kg wet, ~100 kg dry
Launch date (UTC)
2019-11-13 (6 years ago)
Launch vehicle
CHANG ZHENG 6
Launch site
Taiyaun Space Center, China (TSC)
Object type
Payload
Rocket body
Debris
Shape & HBR
Box + 2 Pan, Unknown HBR
Radar Cross Section
0.166 m², Medium (>0.1 m² and < 1m²)

Expand to show TLE details & history

TLE from 3 hours ago
0 NINGXIA-1 2
1 44780U 19076B   25189.19656807 -.00000108  00000-0  14063-4 0  9991
2 44780  45.0095 277.2766 0007123 312.3990  47.6241 14.01945663289580
Epoch: 2025-07-08T04:43Z
TLE epoch observation values (Epoch: 2025-07-08T04:43:03.481Z)
Latitude
Longitude
-79.88292°
Altitude
883.58 km
Speed
7.414 km/s
True Right ascension
18h 29m 06s
True Declination
0° 00' 00"
Sunlit
Object was in full shadow at epoch
Visualization orbit readout
Latitude
-44.87529°
Longitude
-178.50277°
Altitude
898.019 km
Speed
7.405 km/s
Apparent Right ascension
09h 54m 14s
Apparent Declination
-46° 47' 17"
Sunlit
Object is in daylight
Visualization observer readout
Local Sidereal Time
19:46:36
Azimuth
242.795° WSW
Elevation
-65.988°
Doppler factor
1
Orbital elements
Apogee altitude
893.76 km
Perigee altitude
883.408 km
Semi-major axis
7,266.721 km
Eccentricity
0.00071
Inclination
45.0095°
RAAN
277.2766°
Arg. of periapsis
312.399°
True anomaly
Unknown
Mean anomaly
47.6241°
Eccentric anomaly
Unknown
Mean motion
3.50377 °/min
Orbital period
102.75 mins
BSTAR
0.000014063
Loading maneuver chart data...
Loading SW <> Apogee altitude chart data...
Loading historical data...
Loading historical data...
Loading historical data...
Loading historical data...
Loading historical data...
Loading historical data...
Loading historical data...
Other satellites on launch #76 in the year 2019 (2019-11-13 UTC)

NINGXIA-1 2 Visibility forecast

Observer location: undefined°, undefined°

Span
Click to sort rows by Start time (UTC) header in descending order
Start Az.
Max El. time (UTC)
Max El. Az.
Max El.
End time (UTC)
End Az.
10 mins2025-07-08 08:17:00.985Z197.998° SSW2025-07-08 08:22:00.985Z138.648° SSE26.969°2025-07-08 08:27:00.985Z80.722° E
10 mins2025-07-08 10:05:00.985Z246.94° WSW2025-07-08 10:10:00.985Z52.547° ENE44.49°2025-07-08 10:15:00.985Z66.441° ENE
9 mins2025-07-08 11:54:00.985Z285.724° WNW2025-07-08 11:58:00.985Z353.309° N38.749°2025-07-08 12:03:00.985Z70.528° E
10 mins2025-07-08 13:42:00.985Z295.642° NW2025-07-08 13:47:00.985Z36.65° NE42.694°2025-07-08 13:52:00.985Z99.128° ESE
10 mins2025-07-08 15:30:00.985Z283.656° WNW2025-07-08 15:35:00.985Z205.189° SW36.45°2025-07-08 15:40:00.985Z143.806° SSE
|